AEA9156 LEMD-GCLP

Flight info

Callsign AEA9156
Flight time N/A
Altitude 37000
Route VTB N10 HIJ N857 KORNO UN857 TERTO
Aircraft B738/M-SDE2E3FGHIRWXY/LB1

Departure

Time 2026-05-07 15:11
Airport Adolfo Suárez Madrid–Barajas Airport (LEMD)

Arrival

Time N/A
Airport Gran Canaria Airport (GCLP)
Time Latitude Longitude Altitude Speed Heading
2026-05-07 14:47 40.47678 -3.57278 1998 ft 0 kts 252°
2026-05-07 15:04 40.47677 -3.57282 1999 ft 1 kts 253°
2026-05-07 15:05 40.47674 -3.57296 1999 ft 2 kts 253°
2026-05-07 15:05 40.47668 -3.57331 1998 ft 5 kts 273°
2026-05-07 15:05 40.47685 -3.57371 2000 ft 6 kts 314°
2026-05-07 15:05 40.47719 -3.57407 2001 ft 6 kts 322°
2026-05-07 15:06 40.47754 -3.57443 2002 ft 6 kts 322°
2026-05-07 15:06 40.47789 -3.57478 2003 ft 6 kts 327°
2026-05-07 15:06 40.47830 -3.57477 2001 ft 6 kts 29°
2026-05-07 15:06 40.47863 -3.57431 2004 ft 8 kts 50°
2026-05-07 15:07 40.47897 -3.57376 1982 ft 8 kts 52°
2026-05-07 15:07 40.47945 -3.57330 2004 ft 10 kts 360°
2026-05-07 15:07 40.48011 -3.57385 2002 ft 12 kts 322°
2026-05-07 15:07 40.48080 -3.57455 2001 ft 12 kts 322°
2026-05-07 15:08 40.48147 -3.57523 1998 ft 12 kts 322°
2026-05-07 15:08 40.48213 -3.57590 1997 ft 12 kts 322°
2026-05-07 15:08 40.48277 -3.57655 1995 ft 11 kts 322°
2026-05-07 15:08 40.48339 -3.57717 1993 ft 11 kts 322°
2026-05-07 15:09 40.48396 -3.57745 1993 ft 9 kts 18°
2026-05-07 15:09 40.48438 -3.57686 1993 ft 9 kts 51°
2026-05-07 15:09 40.48451 -3.57612 1994 ft 8 kts 89°
2026-05-07 15:09 40.48432 -3.57543 1995 ft 8 kts 138°
2026-05-07 15:10 40.48365 -3.57473 1998 ft 32 kts 142°
2026-05-07 15:10 40.47995 -3.57097 2002 ft 102 kts 142°
2026-05-07 15:10 40.47264 -3.56354 1989 ft 162 kts 142°
2026-05-07 15:10 40.46318 -3.55409 2499 ft 173 kts 143°
2026-05-07 15:11 40.45337 -3.54486 3346 ft 171 kts 139°
2026-05-07 15:11 40.44353 -3.53495 3795 ft 191 kts 141°
2026-05-07 15:11 40.43246 -3.52375 4003 ft 211 kts 142°
2026-05-07 15:11 40.42034 -3.51146 4220 ft 227 kts 142°
2026-05-07 15:12 40.40791 -3.49885 4757 ft 232 kts 143°
2026-05-07 15:12 40.39519 -3.48593 5462 ft 232 kts 143°
2026-05-07 15:12 40.38238 -3.47288 6189 ft 233 kts 143°
2026-05-07 15:12 40.36934 -3.45961 6773 ft 240 kts 143°
2026-05-07 15:13 40.35614 -3.44616 7467 ft 240 kts 144°
2026-05-07 15:13 40.34292 -3.43269 8155 ft 243 kts 144°
2026-05-07 15:13 40.33387 -3.42348 8607 ft 244 kts 144°
2026-05-07 15:13 40.32037 -3.40976 9323 ft 247 kts 144°
2026-05-07 15:14 40.30683 -3.39600 9976 ft 252 kts 144°
2026-05-07 15:14 40.29241 -3.38304 10641 ft 251 kts 160°
2026-05-07 15:14 40.27516 -3.37999 11235 ft 254 kts 190°
2026-05-07 15:14 40.25813 -3.38742 11577 ft 269 kts 205°
2026-05-07 15:15 40.24095 -3.39775 12201 ft 275 kts 205°
2026-05-07 15:15 40.22350 -3.40821 12965 ft 277 kts 205°
2026-05-07 15:15 40.20585 -3.41869 13763 ft 279 kts 205°
2026-05-07 15:15 40.18713 -3.42640 14320 ft 290 kts 188°
2026-05-07 15:16 40.16624 -3.42882 14503 ft 313 kts 185°
2026-05-07 15:16 40.14371 -3.43065 14675 ft 336 kts 184°
2026-05-07 15:16 40.11967 -3.43253 14831 ft 357 kts 185°
2026-05-07 15:16 40.09433 -3.43462 15202 ft 370 kts 185°
2026-05-07 15:17 40.08565 -3.43536 15392 ft 372 kts 185°
2026-05-07 15:17 39.98788 -3.44435 17848 ft 385 kts 185°
2026-05-07 15:18 39.96104 -3.44690 18444 ft 388 kts 185°
2026-05-07 15:18 39.93400 -3.44948 19016 ft 391 kts 185°
2026-05-07 15:18 39.90672 -3.45207 19577 ft 394 kts 185°
2026-05-07 15:18 39.87928 -3.45468 20128 ft 397 kts 185°
2026-05-07 15:19 39.85160 -3.45731 20661 ft 401 kts 185°
2026-05-07 15:19 39.82366 -3.45996 21183 ft 404 kts 185°
2026-05-07 15:19 39.79612 -3.46458 21662 ft 407 kts 197°
2026-05-07 15:19 39.77042 -3.47984 22179 ft 408 kts 214°
2026-05-07 15:20 39.74890 -3.50395 22720 ft 410 kts 225°
2026-05-07 15:20 39.72892 -3.53053 23191 ft 413 kts 226°
2026-05-07 15:20 39.70889 -3.55762 23607 ft 417 kts 226°
2026-05-07 15:20 39.68867 -3.58483 24009 ft 420 kts 227°
2026-05-07 15:21 39.66796 -3.61240 24454 ft 422 kts 227°
2026-05-07 15:21 39.64762 -3.63922 24868 ft 424 kts 227°
2026-05-07 15:21 39.62686 -3.66645 25257 ft 426 kts 227°
2026-05-07 15:21 39.60593 -3.69383 25646 ft 428 kts 228°
2026-05-07 15:22 39.58491 -3.72130 26031 ft 430 kts 228°
2026-05-07 15:22 39.56376 -3.74891 26404 ft 432 kts 229°
2026-05-07 15:22 39.54254 -3.77663 26762 ft 434 kts 229°
2026-05-07 15:22 39.52120 -3.80452 27119 ft 436 kts 229°
2026-05-07 15:23 39.49979 -3.83246 27445 ft 437 kts 231°
2026-05-07 15:23 39.47838 -3.86039 27888 ft 437 kts 231°
2026-05-07 15:23 39.45696 -3.88833 28251 ft 438 kts 232°
2026-05-07 15:23 39.43542 -3.91641 28550 ft 441 kts 232°
2026-05-07 15:24 39.41375 -3.94463 28815 ft 443 kts 232°
2026-05-07 15:24 39.39201 -3.97291 29144 ft 444 kts 232°
2026-05-07 15:24 39.37024 -4.00117 29654 ft 442 kts 232°
2026-05-07 15:24 39.34863 -4.02916 30184 ft 438 kts 233°
2026-05-07 15:25 39.32723 -4.05686 30628 ft 435 kts 233°
2026-05-07 15:25 39.30590 -4.08446 31005 ft 433 kts 233°
2026-05-07 15:25 39.28469 -4.11192 31356 ft 432 kts 233°
2026-05-07 15:25 39.26348 -4.13934 31703 ft 429 kts 233°
2026-05-07 15:26 39.24248 -4.16646 32155 ft 426 kts 233°
2026-05-07 15:26 39.22160 -4.19340 32564 ft 424 kts 234°
2026-05-07 15:26 39.20078 -4.22027 32917 ft 423 kts 234°
2026-05-07 15:26 39.18001 -4.24705 33270 ft 421 kts 234°
2026-05-07 15:27 39.15935 -4.27365 33646 ft 419 kts 234°
2026-05-07 15:27 39.13875 -4.30014 34022 ft 417 kts 234°
2026-05-07 15:27 39.11823 -4.32652 34283 ft 417 kts 233°
2026-05-07 15:27 39.09771 -4.35290 34475 ft 418 kts 233°
2026-05-07 15:28 39.07708 -4.37939 34687 ft 419 kts 233°
2026-05-07 15:28 39.05645 -4.40583 34986 ft 418 kts 233°
2026-05-07 15:28 39.03590 -4.43214 35196 ft 417 kts 233°
2026-05-07 15:28 39.01541 -4.45834 35547 ft 414 kts 233°
2026-05-07 15:29 38.99509 -4.48431 35885 ft 411 kts 232°
2026-05-07 15:29 38.97477 -4.51030 36060 ft 412 kts 232°
2026-05-07 15:29 38.95441 -4.53633 36224 ft 414 kts 232°
2026-05-07 15:29 38.93399 -4.56236 36446 ft 413 kts 232°
2026-05-07 15:30 38.91362 -4.58826 36757 ft 410 kts 232°
2026-05-07 15:30 38.89330 -4.61406 36839 ft 413 kts 231°
2026-05-07 15:30 38.85238 -4.66602 36863 ft 413 kts 231°
2026-05-07 15:31 38.81179 -4.71742 36849 ft 407 kts 231°
2026-05-07 15:31 38.77163 -4.76824 36858 ft 404 kts 231°
2026-05-07 15:32 38.73168 -4.81876 36857 ft 403 kts 231°
2026-05-07 15:32 38.69178 -4.86911 36856 ft 403 kts 231°
2026-05-07 15:33 38.65190 -4.91936 36852 ft 402 kts 231°
2026-05-07 15:33 38.61195 -4.96961 36840 ft 403 kts 231°
2026-05-07 15:34 38.57192 -5.01989 36854 ft 404 kts 231°
2026-05-07 15:34 38.53171 -5.07030 36837 ft 405 kts 231°
2026-05-07 15:35 38.48621 -5.11446 36853 ft 421 kts 216°
2026-05-07 15:35 38.43318 -5.14747 36855 ft 426 kts 213°
2026-05-07 15:36 38.37964 -5.18009 36858 ft 427 kts 213°
2026-05-07 15:36 38.32611 -5.21299 36855 ft 427 kts 214°
2026-05-07 15:37 38.27257 -5.24606 36859 ft 427 kts 214°
2026-05-07 15:37 38.21910 -5.27911 36854 ft 427 kts 214°
2026-05-07 15:38 38.16571 -5.31207 36858 ft 426 kts 214°
2026-05-07 15:38 38.11244 -5.34489 36859 ft 425 kts 213°
2026-05-07 15:39 38.05962 -5.37738 36832 ft 424 kts 214°
2026-05-07 15:39 38.00668 -5.40989 36854 ft 422 kts 214°
2026-05-07 15:40 37.95389 -5.44226 36856 ft 421 kts 214°
2026-05-07 15:40 37.90130 -5.47446 36857 ft 419 kts 213°
2026-05-07 15:41 37.84884 -5.50653 36870 ft 418 kts 214°
2026-05-07 15:41 37.79641 -5.53853 36864 ft 418 kts 214°
2026-05-07 15:42 37.74407 -5.57042 36858 ft 417 kts 214°
2026-05-07 15:42 37.69177 -5.60224 36868 ft 418 kts 214°
2026-05-07 15:43 37.63935 -5.63409 36867 ft 418 kts 214°
2026-05-07 15:43 37.58686 -5.66593 36878 ft 419 kts 214°
2026-05-07 15:44 37.53431 -5.69775 36872 ft 419 kts 214°
2026-05-07 15:44 37.48171 -5.72956 36884 ft 419 kts 213°
2026-05-07 15:45 37.42974 -5.76240 36876 ft 414 kts 219°
2026-05-07 15:45 37.38539 -5.80648 36886 ft 405 kts 227°
2026-05-07 15:46 37.32126 -5.87546 36862 ft 405 kts 227°
2026-05-07 15:47 37.27867 -5.92083 36882 ft 404 kts 227°
2026-05-07 15:47 37.23581 -5.96631 36897 ft 403 kts 227°
2026-05-07 15:48 37.19265 -6.01203 36892 ft 403 kts 227°
2026-05-07 15:48 37.15009 -6.05704 36901 ft 403 kts 227°
2026-05-07 15:49 37.10730 -6.10223 36901 ft 402 kts 227°
2026-05-07 15:49 37.06454 -6.14731 36882 ft 401 kts 226°
2026-05-07 15:50 37.02188 -6.19222 36896 ft 400 kts 226°
2026-05-07 15:50 36.97924 -6.23704 36909 ft 400 kts 226°
2026-05-07 15:51 36.94382 -6.27423 36917 ft 400 kts 226°
2026-05-07 15:51 36.90121 -6.31890 36914 ft 400 kts 226°
2026-05-07 15:52 36.85858 -6.36353 36916 ft 400 kts 226°
2026-05-07 15:52 36.81589 -6.40814 36894 ft 400 kts 226°
2026-05-07 15:53 36.77322 -6.45267 36910 ft 400 kts 226°
2026-05-07 15:53 36.73046 -6.49723 36925 ft 401 kts 226°
2026-05-07 15:54 36.68764 -6.54180 36910 ft 402 kts 226°
2026-05-07 15:54 36.64467 -6.58644 36935 ft 402 kts 226°
2026-05-07 15:55 36.60164 -6.63108 36936 ft 403 kts 226°
2026-05-07 15:55 36.55855 -6.67573 36915 ft 403 kts 226°
2026-05-07 15:56 36.51541 -6.72035 36924 ft 403 kts 226°
2026-05-07 15:56 36.47220 -6.76493 36932 ft 404 kts 226°
2026-05-07 15:57 36.42897 -6.80944 36931 ft 404 kts 226°
2026-05-07 15:57 36.38573 -6.85392 36937 ft 404 kts 226°
2026-05-07 15:58 36.34249 -6.89835 36935 ft 403 kts 226°
2026-05-07 15:58 36.29927 -6.94268 36901 ft 403 kts 226°
2026-05-07 15:59 36.25619 -6.98681 36924 ft 401 kts 225°
2026-05-07 15:59 36.21317 -7.03081 36940 ft 401 kts 225°
2026-05-07 16:00 36.17052 -7.07438 36938 ft 400 kts 225°
2026-05-07 16:00 36.12761 -7.11815 36946 ft 399 kts 225°
2026-05-07 16:01 36.08473 -7.16182 36942 ft 399 kts 225°
2026-05-07 16:01 36.04189 -7.20540 36943 ft 399 kts 225°
2026-05-07 16:02 35.99905 -7.24890 36932 ft 398 kts 225°
2026-05-07 16:02 35.95625 -7.29231 36947 ft 398 kts 225°
2026-05-07 16:03 35.91342 -7.33568 36945 ft 398 kts 225°
2026-05-07 16:03 35.87084 -7.37877 36947 ft 398 kts 225°
2026-05-07 16:04 35.82805 -7.42196 36943 ft 398 kts 225°
2026-05-07 16:04 35.78492 -7.46508 36953 ft 399 kts 225°
2026-05-07 16:05 35.74175 -7.50805 36946 ft 399 kts 225°
2026-05-07 16:05 35.69859 -7.55100 36944 ft 399 kts 225°
2026-05-07 16:06 35.65539 -7.59396 36951 ft 399 kts 225°
2026-05-07 16:06 35.61219 -7.63687 36954 ft 399 kts 224°
2026-05-07 16:07 35.56897 -7.67974 36954 ft 399 kts 224°
2026-05-07 16:07 35.52605 -7.72225 36944 ft 399 kts 224°
2026-05-07 16:08 35.48271 -7.76512 36939 ft 398 kts 224°
2026-05-07 16:08 35.43991 -7.80741 36954 ft 397 kts 224°
2026-05-07 16:09 35.39690 -7.84993 36950 ft 397 kts 224°
2026-05-07 16:09 35.35410 -7.89269 36956 ft 397 kts 224°
2026-05-07 16:10 35.31137 -7.93543 36956 ft 397 kts 224°
2026-05-07 16:10 35.26860 -7.97811 36953 ft 397 kts 224°
2026-05-07 16:11 35.22582 -8.02072 36935 ft 397 kts 224°
2026-05-07 16:11 35.18301 -8.06329 36953 ft 397 kts 224°
2026-05-07 16:12 35.14014 -8.10586 36960 ft 397 kts 224°
2026-05-07 16:12 35.09721 -8.14844 36959 ft 398 kts 224°
2026-05-07 16:13 35.05415 -8.19108 36957 ft 399 kts 224°
2026-05-07 16:13 35.01103 -8.23371 36959 ft 399 kts 224°
2026-05-07 16:14 34.96782 -8.27637 36960 ft 400 kts 224°
2026-05-07 16:14 34.92454 -8.31905 36954 ft 400 kts 225°
2026-05-07 16:15 34.88151 -8.36142 36972 ft 400 kts 225°
2026-05-07 16:15 34.83823 -8.40398 36960 ft 400 kts 225°
2026-05-07 16:16 34.79496 -8.44646 36962 ft 399 kts 224°
2026-05-07 16:16 34.75179 -8.48879 36960 ft 398 kts 224°
2026-05-07 16:17 34.70841 -8.53127 36961 ft 397 kts 224°
2026-05-07 16:17 34.66572 -8.57302 36951 ft 396 kts 224°
2026-05-07 16:18 34.62279 -8.61495 36965 ft 396 kts 224°
2026-05-07 16:18 34.57989 -8.65679 36965 ft 396 kts 224°
2026-05-07 16:19 34.53695 -8.69862 36968 ft 396 kts 224°
2026-05-07 16:19 34.49398 -8.74044 36971 ft 396 kts 224°
2026-05-07 16:20 34.45094 -8.78224 36962 ft 397 kts 224°
2026-05-07 16:20 34.40779 -8.82390 36946 ft 397 kts 223°
2026-05-07 16:21 34.36453 -8.86544 36961 ft 397 kts 223°
2026-05-07 16:21 34.32127 -8.90695 36965 ft 397 kts 223°
2026-05-07 16:22 34.27794 -8.94849 36962 ft 397 kts 223°
2026-05-07 16:22 34.23459 -8.99001 36961 ft 398 kts 223°
2026-05-07 16:23 34.19121 -9.03151 36962 ft 398 kts 223°
2026-05-07 16:23 34.14778 -9.07299 36962 ft 398 kts 223°
2026-05-07 16:24 34.10435 -9.11442 36955 ft 398 kts 223°
2026-05-07 16:24 34.06089 -9.15583 36969 ft 398 kts 223°
2026-05-07 16:25 34.01732 -9.19728 36959 ft 399 kts 223°
2026-05-07 16:25 33.97366 -9.23878 36965 ft 400 kts 223°
2026-05-07 16:26 33.92989 -9.28030 36964 ft 401 kts 223°
2026-05-07 16:26 33.88607 -9.32183 36958 ft 401 kts 223°
2026-05-07 16:27 33.84252 -9.36304 36947 ft 401 kts 223°
2026-05-07 16:27 33.81455 -9.38947 36961 ft 401 kts 223°
2026-05-07 16:28 33.77058 -9.43099 36964 ft 402 kts 223°
2026-05-07 16:28 33.72658 -9.47249 36968 ft 402 kts 223°
2026-05-07 16:29 33.68258 -9.51393 36957 ft 401 kts 223°
2026-05-07 16:29 33.63869 -9.55519 36956 ft 400 kts 223°
2026-05-07 16:30 33.59499 -9.59623 36956 ft 398 kts 223°
2026-05-07 16:30 33.55148 -9.63704 36957 ft 396 kts 223°
2026-05-07 16:31 33.50811 -9.67767 36959 ft 395 kts 223°
2026-05-07 16:31 33.46483 -9.71816 36964 ft 395 kts 223°
2026-05-07 16:32 33.42161 -9.75856 36961 ft 395 kts 222°
2026-05-07 16:32 33.37814 -9.79912 36963 ft 396 kts 222°
2026-05-07 16:33 33.33468 -9.83962 36964 ft 396 kts 222°
2026-05-07 16:33 33.29110 -9.88019 36968 ft 398 kts 222°
2026-05-07 16:34 33.24737 -9.92083 36959 ft 399 kts 222°
2026-05-07 16:34 33.20356 -9.96151 36971 ft 399 kts 222°
2026-05-07 16:35 33.15972 -10.00216 36965 ft 399 kts 222°
2026-05-07 16:35 33.11587 -10.04276 36972 ft 399 kts 222°
2026-05-07 16:36 33.07234 -10.08303 36959 ft 398 kts 222°
2026-05-07 16:36 33.02858 -10.12344 36969 ft 398 kts 222°
2026-05-07 16:37 32.98484 -10.16376 36967 ft 397 kts 222°
2026-05-07 16:37 32.94115 -10.20395 36963 ft 396 kts 222°
2026-05-07 16:38 32.89754 -10.24404 36961 ft 396 kts 222°
2026-05-07 16:38 32.85405 -10.28398 36966 ft 394 kts 222°
2026-05-07 16:39 32.81066 -10.32378 36966 ft 393 kts 222°
2026-05-07 16:39 32.77440 -10.35700 36967 ft 393 kts 222°
2026-05-07 16:40 32.73143 -10.39633 36967 ft 392 kts 222°
2026-05-07 16:40 32.68827 -10.43578 36962 ft 391 kts 222°
2026-05-07 16:41 32.64509 -10.47521 36975 ft 392 kts 222°
2026-05-07 16:41 32.60190 -10.51459 36968 ft 393 kts 222°
2026-05-07 16:42 32.55857 -10.55405 36967 ft 394 kts 222°
2026-05-07 16:42 32.51505 -10.59363 36977 ft 394 kts 222°
2026-05-07 16:43 32.47149 -10.63321 36966 ft 395 kts 222°
2026-05-07 16:43 32.42780 -10.67284 36937 ft 395 kts 222°
2026-05-07 16:44 32.38411 -10.71241 36961 ft 395 kts 222°